Hourly Data Report for October 03, 2017

All times are specified in Local Standard Time (LST). Add 1 hour to adjust for Daylight Saving Time where and when it is observed.

MORDEN CDA CS
MANITOBA

49°11'15.500" N
98°05'02.200" W
297.50 m
5021849
71564
XMD

Download Data

Hourly Data (October 2017)
Hourly Data Report for October 3, 2017
Temp Definition
°C
Dew Point Temp Definition
°C
Rel Hum Definition
%
Wind Dir Definition
10's deg

Wind Spd Definition
km/h
Visibility Definition
km
Stn Press Definition
kPa
Hmdx Definition


Wind Chill Definition


Weather Definition


TIME
00:00 4.9 3.4 90 21 3   97.71     LegendNANA
01:00 4.0 2.3 89 24 5   97.78     LegendNANA
02:00 5.0 2.9 86 25 6   97.77     LegendNANA
03:00 6.2 3.4 83 26 11   97.78     LegendNANA
04:00 6.3 3.9 84 26 7   97.81     LegendNANA
05:00 6.9 3.4 78 26 10   97.87     LegendNANA
06:00 7.7 2.5 70 27 8   97.87     LegendNANA
07:00 7.8 2.2 67 26 12   97.97     LegendNANA
08:00 7.4 2.2 70 27 11   98.06     LegendNANA
09:00 7.0 4.5 84 21 7   98.16     LegendNANA
10:00 8.8 4.1 73 19 9   98.14     LegendNANA
11:00 9.6 3.0 64 23 12   98.23     LegendNANA
12:00 12.4 4.6 59 21 16   98.22     LegendNANA
13:00 13.6 2.7 48 21 14   98.21     LegendNANA
14:00 14.1 1.4 42 22 15   98.20     LegendNANA
15:00 14.0 -0.1 38 23 18   98.22     LegendNANA
16:00 12.7 0.4 43 24 17   98.30     LegendNANA
17:00 12.3 1.1 46 24 10   98.34     LegendNANA
18:00 11.8 1.1 48 27 9   98.38     LegendNANA
19:00 10.6 1.7 54 26 7   98.45     LegendNANA
20:00 9.2 2.1 61 28 5   98.46     LegendNANA
21:00 8.3 2.2 66 29 8   98.51     LegendNANA
22:00 7.4 2.3 70 27 7   98.53     LegendNANA
23:00 7.9 2.5 69 28 7   98.54     LegendNANA

Notes on Data Quality.

Legend

  • E = Estimated
  • M = Missing
  • NA = Not Available
  • ‡ = Partner data that is not subject to review by the National Climate Archives
Date modified: